Weather History for Silver City, NM

Change the Weather History Date:

Monday, January 7, 2013

  Actual Average (KDMN) Record (KDMN)
Temperature  
Mean Temperature 34 °F 41 °F  
Max Temperature 50 °F 56 °F 69 °F (1956)
Min Temperature 17 °F 26 °F 4 °F (1967)
Degree Days  
Heating Degree Days 32    
Moisture  
Dew Point 19 °F    
Average Humidity 52    
Maximum Humidity 86    
Minimum Humidity 30    
Precipitation  
Precipitation 0.00 in 0.01 in 0.80 in (1965)
Month to date precipitation 0.12  
Year to date precipitation 0.12  
Sea Level Pressure  
Sea Level Pressure 29.96 in    
Wind  
Wind Speed 7 mph (NE)    
Max Wind Speed 16 mph    
Max Gust Speed 21 mph    
Visibility 10 miles    
Events      
T = Trace of Precipitation, MM = Missing Value Source: NWS Daily Summary

Daily Weather History Graph

Daily Weather History Graph

Search for Another Location

Airport:

Trip Planner

Search our weather history database for the weather conditions in past years. The results will help you decide how hot, cold, wet, or windy it might be!

Date:

Astronomy

Jan. 07, 2013 Rise Set
Actual Time 7:15 AM MST 5:22 PM MST
Civil Twilight 6:48 AM MST 5:49 PM MST
Nautical Twilight 6:18 AM MST 6:20 PM MST
Astronomical Twilight 5:48 AM MST 6:50 PM MST
Moon 2:46 AM MST (1/7) 1:33 PM MST (1/7)
Length of Visible Light 11h 01m
Length of Day
10h 07m
Waning Crescent, 22% of the Moon is Illuminated
Jan 7
Waning Crescent
Jan 11
New
Jan 18
First Quarter
Jan 26
Full
Feb 3
Last Quarter

Hourly Weather History & Observations

Time (MST) Temp. Windchill Dew Point Humidity Pressure Visibility Wind Dir Wind Speed Gust Speed Precip Events Conditions
12:15 AM 28.4 °F 24.6 °F 14.0 °F 55% 30.09 in 10.0 mi North 3.5 mph - N/A   Clear
12:35 AM 26.6 °F 18.2 °F 14.0 °F 59% 30.08 in 10.0 mi WNW 8.1 mph - N/A   Clear
12:55 AM 28.4 °F 24.6 °F 14.0 °F 55% 30.08 in 10.0 mi West 3.5 mph - N/A   Clear
1:15 AM 26.6 °F 20.0 °F 14.0 °F 59% 30.07 in 10.0 mi WNW 5.8 mph - N/A   Clear
1:35 AM 24.8 °F 16.1 °F 14.0 °F 64% 30.06 in 10.0 mi NW 8.1 mph - N/A   Clear
1:55 AM 23.0 °F 17.0 °F 14.0 °F 68% 30.06 in 10.0 mi NNW 4.6 mph - N/A   Clear
2:15 AM 24.8 °F 20.5 °F 14.0 °F 64% 30.05 in 10.0 mi North 3.5 mph - N/A   Clear
2:35 AM 24.8 °F 20.5 °F 14.0 °F 64% 30.05 in 10.0 mi NE 3.5 mph - N/A   Clear
2:55 AM 26.6 °F 22.6 °F 15.8 °F 64% 30.04 in 10.0 mi NE 3.5 mph - N/A   Clear
3:15 AM 26.6 °F 21.2 °F 15.8 °F 64% 30.04 in 10.0 mi NW 4.6 mph - N/A   Clear
3:35 AM 24.8 °F 19.1 °F 15.8 °F 69% 30.03 in 10.0 mi WNW 4.6 mph - N/A   Clear
3:55 AM 24.8 °F 16.9 °F 15.8 °F 69% 30.03 in 10.0 mi NW 6.9 mph - N/A   Clear
4:15 AM 24.8 °F 19.1 °F 17.6 °F 74% 30.02 in 10.0 mi NNW 4.6 mph - N/A   Clear
4:35 AM 23.0 °F 14.7 °F 15.8 °F 74% 30.02 in 10.0 mi North 6.9 mph - N/A   Clear
4:55 AM 23.0 °F 13.9 °F 15.8 °F 74% 30.01 in 10.0 mi North 8.1 mph - N/A   Clear
5:15 AM 23.0 °F 13.9 °F 15.8 °F 74% 30.01 in 10.0 mi North 8.1 mph - N/A   Clear
5:35 AM 23.0 °F 14.7 °F 15.8 °F 74% 30.00 in 10.0 mi North 6.9 mph - N/A   Clear
5:55 AM 21.2 °F 12.6 °F 15.8 °F 80% 30.00 in 10.0 mi North 6.9 mph - N/A   Clear
6:15 AM 17.6 °F 10.7 °F 14.0 °F 86% 30.00 in 10.0 mi North 4.6 mph - N/A   Clear
6:35 AM 19.4 °F 14.3 °F 15.8 °F 86% 30.00 in 10.0 mi North 3.5 mph - N/A   Clear
6:55 AM 19.4 °F 14.3 °F 14.0 °F 80% 30.00 in 10.0 mi NNW 3.5 mph - N/A   Clear
7:15 AM 21.2 °F 14.9 °F 15.8 °F 80% 30.01 in 10.0 mi NW 4.6 mph - N/A   Clear
7:35 AM 21.2 °F - 15.8 °F 80% 30.00 in 10.0 mi Calm Calm - N/A   Clear
7:55 AM 21.2 °F 14.9 °F 15.8 °F 80% 30.01 in 10.0 mi NNW 4.6 mph - N/A   Clear
8:15 AM 28.4 °F 23.3 °F 19.4 °F 69% 30.00 in 10.0 mi NNW 4.6 mph - N/A   Clear
8:35 AM 32.0 °F - 21.2 °F 64% 30.01 in 10.0 mi Calm Calm - N/A   Clear
8:55 AM 37.4 °F 33.8 °F 21.2 °F 52% 30.00 in 10.0 mi East 4.6 mph - N/A   Clear
9:15 AM 41.0 °F 34.3 °F 23.0 °F 49% 30.00 in 10.0 mi East 11.5 mph - N/A   Clear
9:35 AM 41.0 °F 33.5 °F 23.0 °F 49% 30.00 in 10.0 mi East 13.8 mph - N/A   Clear
9:55 AM 44.6 °F 38.1 °F 23.0 °F 43% 29.99 in 10.0 mi East 13.8 mph - N/A   Clear
10:15 AM 44.6 °F 38.1 °F 23.0 °F 43% 29.99 in 10.0 mi SE 13.8 mph 19.6 mph N/A   Clear
10:35 AM 44.6 °F 38.4 °F 23.0 °F 43% 29.99 in 10.0 mi SE 12.7 mph 18.4 mph N/A   Clear
10:55 AM 44.6 °F 40.2 °F 23.0 °F 43% 29.99 in 10.0 mi SSE 8.1 mph - N/A   Clear
11:15 AM 46.4 °F 41.9 °F 23.0 °F 40% 29.98 in 10.0 mi SE 9.2 mph - N/A   Clear
11:35 AM 46.4 °F 41.1 °F 23.0 °F 40% 29.96 in 10.0 mi SE 11.5 mph 17.3 mph N/A   Clear
11:55 AM 48.2 °F - 23.0 °F 37% 29.96 in 10.0 mi ESE 11.5 mph - N/A   Clear
12:15 PM 48.2 °F - 23.0 °F 37% 29.94 in 10.0 mi ESE 10.4 mph - N/A   Clear
12:35 PM 48.2 °F - 24.8 °F 40% 29.92 in 10.0 mi SE 11.5 mph - N/A   Clear
12:55 PM 48.2 °F - 23.0 °F 37% 29.92 in 10.0 mi ESE 11.5 mph 16.1 mph N/A   Clear
1:15 PM 48.2 °F - 23.0 °F 37% 29.91 in 10.0 mi ESE 12.7 mph 16.1 mph N/A   Clear
1:35 PM 50.0 °F - 21.2 °F 32% 29.90 in 10.0 mi ESE 6.9 mph 16.1 mph N/A   Partly Cloudy
1:55 PM 48.2 °F - 21.2 °F 34% 29.90 in 10.0 mi ESE 8.1 mph - N/A   Scattered Clouds
2:15 PM 48.2 °F - 21.2 °F 34% 29.90 in 10.0 mi ESE 9.2 mph - N/A   Partly Cloudy
2:35 PM 50.0 °F - 21.2 °F 32% 29.90 in 10.0 mi East 9.2 mph - N/A   Clear
2:55 PM 50.0 °F - 21.2 °F 32% 29.90 in 10.0 mi East 8.1 mph - N/A   Clear
3:15 PM 50.0 °F - 19.4 °F 30% 29.90 in 10.0 mi SE 10.4 mph - N/A   Clear
3:35 PM 50.0 °F - 19.4 °F 30% 29.89 in 10.0 mi SE 10.4 mph - N/A   Clear
3:55 PM 48.2 °F - 19.4 °F 32% 29.89 in 10.0 mi SE 9.2 mph - N/A   Clear
4:15 PM 48.2 °F - 19.4 °F 32% 29.89 in 10.0 mi ESE 8.1 mph - N/A   Clear
4:35 PM 46.4 °F 43.5 °F 19.4 °F 34% 29.89 in 10.0 mi SE 5.8 mph - N/A   Clear
4:55 PM 46.4 °F 41.9 °F 19.4 °F 34% 29.90 in 10.0 mi SE 9.2 mph - N/A   Scattered Clouds
5:15 PM 46.4 °F 41.9 °F 19.4 °F 34% 29.89 in 10.0 mi ESE 9.2 mph - N/A   Partly Cloudy
5:35 PM 44.6 °F 41.4 °F 19.4 °F 37% 29.89 in 10.0 mi SE 5.8 mph - N/A   Scattered Clouds
5:55 PM 42.8 °F 41.1 °F 19.4 °F 39% 29.90 in 10.0 mi SSE 3.5 mph - N/A   Overcast
6:15 PM 42.8 °F - 19.4 °F 39% 29.90 in 10.0 mi Calm Calm - N/A   Mostly Cloudy
6:35 PM 37.4 °F 30.8 °F 19.4 °F 48% 29.90 in 10.0 mi NW 9.2 mph - N/A   Partly Cloudy
6:55 PM 39.2 °F 33.0 °F 19.4 °F 45% 29.89 in 10.0 mi NNW 9.2 mph - N/A   Partly Cloudy
7:15 PM 35.6 °F 28.6 °F 19.4 °F 52% 29.89 in 10.0 mi NNW 9.2 mph - N/A   Partly Cloudy
7:35 PM 39.2 °F 33.6 °F 19.4 °F 45% 29.90 in 10.0 mi NW 8.1 mph - N/A   Mostly Cloudy
7:55 PM 39.2 °F 34.2 °F 19.4 °F 45% 29.91 in 10.0 mi NW 6.9 mph - N/A   Overcast
8:15 PM 41.0 °F 32.8 °F 21.2 °F 45% 29.93 in 10.0 mi South 16.1 mph 20.7 mph N/A   Mostly Cloudy
8:35 PM 41.0 °F 34.3 °F 21.2 °F 45% 29.92 in 10.0 mi SSW 11.5 mph - N/A   Partly Cloudy
8:55 PM 42.8 °F 40.1 °F 21.2 °F 42% 29.91 in 10.0 mi SW 4.6 mph - N/A   Clear
9:15 PM 41.0 °F 35.2 °F 21.2 °F 45% 29.90 in 10.0 mi NNW 9.2 mph - N/A   Clear
9:35 PM 39.2 °F 33.6 °F 23.0 °F 52% 29.90 in 10.0 mi NW 8.1 mph - N/A   Clear
9:55 PM 39.2 °F 33.0 °F 23.0 °F 52% 29.90 in 10.0 mi NW 9.2 mph - N/A   Clear
10:15 PM 39.2 °F 33.0 °F 23.0 °F 52% 29.91 in 10.0 mi SE 9.2 mph - N/A   Clear
10:35 PM 39.2 °F 33.6 °F 24.8 °F 56% 29.92 in 10.0 mi SE 8.1 mph - N/A   Partly Cloudy
10:55 PM 39.2 °F 33.6 °F 23.0 °F 52% 29.92 in 10.0 mi ESE 8.1 mph - N/A   Scattered Clouds
11:35 PM 37.4 °F 32.1 °F 23.0 °F 56% 29.92 in 10.0 mi North 6.9 mph - N/A   Clear
11:55 PM 37.4 °F 29.8 °F 23.0 °F 56% 29.92 in 10.0 mi North 11.5 mph - N/A   Partly Cloudy